• MPC Preparation (Info)

  • MPEC 2016-O149: 2014 MF70

    The following Minor Planet Electronic Circular may be linked-to from your own Web pages, but must not otherwise be redistributed electronically.

    A form allowing access to any MPEC is at the bottom of this page.


    Read MPEC 2016-O148 Read MPEC 2016-O150


    M.P.E.C. 2016-O149                               Issued 2016 July 17, 08:26 UT
    
         The Minor Planet Electronic Circulars contain information on unusual
             minor planets and routine data on comets.  They are published
        on behalf of Division F of the International Astronomical Union by the
              Minor Planet Center, Smithsonian Astrophysical Observatory,
                              Cambridge, MA 02138, U.S.A.
    
                 Prepared using the Tamkin Foundation Computer Network
    
                                  MPC@CFA.HARVARD.EDU
                URL https://www.minorplanetcenter.net/    ISSN 1523-6714
    
                                       2014 MF70
    
    Observations:
         K14M70F  C2013 05 08.43472 15 25 57.554-13 53 33.69         22.1 wLEO149F51
         K14M70F  C2013 05 08.44882 15 25 57.474-13 53 33.40         22.2 wLEO149F51
         K14M70F  C2013 05 08.46291 15 25 57.394-13 53 33.08         22.0 wLEO149F51
         K14M70F  C2013 05 08.47705 15 25 57.316-13 53 32.82         22.0 wLEO149F51
         K14M70F* C2014 06 21.34598 15 29 20.616-14 10 42.28         21.9 wLEO149F51
         K14M70F  C2014 06 21.34928 15 29 20.603-14 10 42.48         21.9 wLEO149F51
         K14M70F  C2014 06 21.35862 15 29 20.567-14 10 42.23         22.1 wLEO149F51
         K14M70F  C2014 06 21.36191 15 29 20.536-14 10 42.23         22.0 wLEO149F51
         K14M70F  C2014 06 21.37124 15 29 20.498-14 10 42.30         21.9 wLEO149F51
         K14M70F  C2014 06 21.38388 15 29 20.448-14 10 41.93         22.1 wLEO149F51
         K14M70F  C2014 06 21.38719 15 29 20.432-14 10 41.90         22.0 wLEO149F51
         K14M70F  C2014 07 26.26654 15 27 38.247-14 08 32.50         22.1 wLEO149F51
         K14M70F  C2014 07 26.27853 15 27 38.229-14 08 32.61         22.2 wLEO149F51
         K14M70F  C2014 07 26.29050 15 27 38.219-14 08 32.59         22.2 wLEO149F51
         K14M70F  C2014 07 26.30244 15 27 38.186-14 08 32.56         22.2 wLEO149F51
         K14M70F  C2015 06 16.36411 15 37 05.474-14 40 52.78         22.3 wLEO149F51
         K14M70F  C2015 06 16.37882 15 37 05.403-14 40 52.40         22.2 wLEO149F51
         K14M70F  C2015 06 16.39345 15 37 05.326-14 40 52.35         22.0 wLEO149F51
         K14M70F  C2015 06 16.40815 15 37 05.253-14 40 52.27         22.0 wLEO149F51
    
    Observer details:
    F51 Pan-STARRS 1, Haleakala.  Observers B. Gibson, T. Goggia, N. Primak,
        A. Schultz, M. Willman.  Measurers K. Chambers, S. Chastel, Y.-T. Chen,
        L. Denneau, H. Flewelling, M. Holman, M. Huber, R. Jedicke, M. Lackner,
        E. Lilly, H.-W. Lin, E. Magnier, M. Micheli, M. Payne, P. Veres,
        R. Wainscoat, C. Waters, R. Weryk.  1.8-m Ritchey-Chretien + CCD.
    
    Orbital elements:
    2014 MF70
    Epoch 2016 July 31.0 TT = JDT 2457600.5                 MPC
    M 313.71959              (2000.0)            P               Q
    n   0.00396008     Peri.  183.39764     +0.63330288     +0.77098042
    a  39.5670426      Node   125.90884     -0.70807265     +0.61229131
    e   0.2440343      Incl.    4.75962     -0.31234692     +0.17518146
    P 249              H    6.4           G   0.15           U   2
    Residuals in seconds of arc
    130508 F51  0.0   0.0     140621 F51  0.1-  0.0     140726 F51  0.2-  0.1+
    130508 F51  0.0   0.0     140621 F51  0.1-  0.2-    150616 F51  0.0   0.1-
    130508 F51  0.0   0.0     140621 F51  0.0   0.1+    150616 F51  0.0   0.1+
    130508 F51  0.0   0.0     140621 F51  0.0   0.1+    150616 F51  0.0   0.0
    140621 F51  0.0   0.1+    140726 F51  0.0   0.0     150616 F51  0.0   0.1-
    140621 F51  0.0   0.1-    140726 F51  0.0   0.1-
    140621 F51  0.1+  0.0     140726 F51  0.1+  0.0
    
    Ephemeris:
    2014 MF70                a,e,i = 39.57, 0.24, 5                  q = 29.911
    Date    TT    R. A. (2000) Decl.     Delta      r     Elong.  Phase     V
    2016 06 17    15 44 28.5 -15 09 20  33.6097 34.5017   151.0     0.8    21.9
    ...
    2016 07 02    15 43 21.3 -15 06 59  33.7467 34.4919   136.5     1.2    21.9
    ...
    2016 07 10    15 42 52.7 -15 06 16  33.8399 34.4867   128.9     1.3    21.9
    ...
    2016 07 16    15 42 35.1 -15 06 01  33.9175 34.4828   123.1     1.4    21.9
    2016 07 17    15 42 32.5 -15 06 00  33.9310 34.4822   122.1     1.4    21.9
    2016 07 18    15 42 30.0 -15 05 59  33.9446 34.4815   121.2     1.4    21.9
    ...
    2016 07 24    15 42 17.2 -15 06 03  34.0295 34.4776   115.4     1.5    21.9
    ...
    2016 08 01    15 42 06.0 -15 06 30  34.1494 34.4724   107.8     1.6    22.0
    ...
    2016 08 16    15 42 04.4 -15 08 33  34.3875 34.4627    93.4     1.7    22.0
    
    A. U. Tomatic                (C) Copyright 2016 MPC           M.P.E.C. 2016-O149
    

    Read MPEC 2016-O148 Read MPEC 2016-O150


    MPEC number:

    Enter an MPEC number in one of the following forms:

    • 1997-B01 (the full form)
    • J97B01 (the packed version of the full form)
    • B01 (the abbreviated form)